Weather Roundup
Issued by NWS

Home | Current Version | Previous Version | Text Only | Print | Product List | Glossary On
Versions: 1 2 3 4 5 6 7 8 9 10 11 12 13 14 15 16 17 18 19 20 21 22 23 24 25 26 27 28 29 30 31 32 33 34 35 36 37 38 39 40 41 42 43 44 45 46 47 48 49 50
000
NZUS93 KARX 310910
HRRWXR

CURRENT HOURLY OBSERVATIONS ACROSS
MUCH OF THE UPPER MISSISSIPPI VALLEY
NATIONAL WEATHER SERVICE LA CROSSE WI
400 AM CDT THU JUL 31 2014


...SOUTHEAST MINNESOTA...


CITY           SKY/WX    TMP DP  RH WIND       PRES   REMARKS
ROCHESTER      CLEAR     59  55  87 W8        30.06F
ROCHESTER/MAYO FAIR      62  55  77 W6        30.05S
WINONA         CLEAR     61  59  94 CALM      30.03R
AUSTIN         CLEAR     57  55  94 CALM      30.07S
ALBERT LEA     PTCLDY    61  55  82 CALM      30.07S
DODGE CENTER   PTCLDY    57  55  94 W6        30.06S
PRESTON        CLEAR     59  58  96 W7        30.06S
OWATONNA       CLEAR     54  52  94 CALM      30.06S
FARIBAULT      CLEAR     59  54  82 CALM      30.05F
$$

...ELSEWHERE IN MINNESOTA...


CITY           SKY/WX    TMP DP  RH WIND       PRES   REMARKS
MINNEAPOLIS    CLEAR     65  58  78 SW3       30.03S
INTNL FALLS    CLEAR     48  48 100 CALM      29.98F
DULUTH         PTCLDY    60  55  83 NW7       29.99S
RED WING       CLEAR     57  55  94 CALM      30.02S
REDWOOD FALLS  CLEAR     60  54  80 W3        30.06F
MANKATO        CLEAR     61  54  77 CALM      30.06F
WORTHINGTON    CLEAR     55  52  88 SW5       30.10S
FAIRMONT       PTCLDY    59  52  77 W5        30.08S
$$

...SOUTHWEST WISCONSIN...


CITY           SKY/WX    TMP DP  RH WIND       PRES   REMARKS
LA CROSSE      CLEAR     65  60  84 CALM      30.01S
PRAIRIE DU CHI CLEAR     58  56  91 CALM      30.03S
BOSCOBEL       CLEAR     60  57  89 SW3       30.03S FOG
LONE ROCK      CLEAR     58  53  84 CALM      30.02S
PLATTEVILLE    CLEAR     61  59  94 W3        30.05S
FORT MC COY    CLEAR     54  53  97 CALM      30.02S
CAMP DOUGLAS   FOG       55  55 100 NW1       30.00F VSB 3/4
VIROQUA        FAIR      59  59 100 W6        30.03S
WIS DELLS      CLEAR     57  54  88 CALM      30.00F
$$

...ELSEWHERE IN WISCONSIN...


CITY           SKY/WX    TMP DP  RH WIND       PRES   REMARKS
MILWAUKEE      PTCLDY    60  54  80 SW5       30.00S
MADISON        PTCLDY    64  56  75 CALM      30.00F
GREEN BAY      CLEAR     56  55  97 CALM      29.97S FOG
EAU CLAIRE     CLEAR     59  57  93 SW5       30.00S
BLACK RVR FLS  FOG       53  53 100 CALM      30.00F VSB<1/4
MEDFORD        CLEAR     56  56  99 SW3       30.00S
WAUSAU         CLEAR     59  58  96 NW3       29.97F
WIS RAPIDS     FOG       57  57 100 CALM      30.00F VSB 1/4
MARSHFIELD     MOCLDY    59  57  93 W3        29.99S
RICE LAKE        N/A     55  54  95 CALM      30.02F FOG
$$

...NORTHEAST IOWA...


CITY           SKY/WX    TMP DP  RH WIND       PRES   REMARKS
WATERLOO       CLEAR     58  55  90 CALM      30.06S
DUBUQUE        CLEAR     59  57  93 SW3       30.05S
DECORAH        PTCLDY    59  57  94 CALM      30.04F
MASON CITY     CLEAR     55  54  96 W3        30.09S
CHARLES CITY   CLEAR     57  55  94 W5        30.08S
OELWEIN        CLEAR     57  57 100 W6        30.07S
$$

...ELSEWHERE IN IOWA...


CITY           SKY/WX    TMP DP  RH WIND       PRES   REMARKS
DES MOINES     CLEAR     61  57  87 NW3       30.08S
IOWA CITY      CLEAR     62  59  90 SW3       30.07S
FORT DODGE     CLOUDY    54  52  94 CALM      30.09F VSB 1/4
MARSHALLTOWN   CLEAR     58  56  93 CALM      30.07F
CEDAR RAPIDS   CLEAR     59  58  96 NW5       30.06S
$$

...NORTHERN ILLINOIS...


CITY           SKY/WX    TMP DP  RH WIND       PRES   REMARKS
CHICAGO-OHARE  CLEAR     62  55  77 SW5       30.01F
DUPAGE         CLEAR     59  57  93 S3        30.02F FOG
CHICAGO-MIDWAY CLEAR     64  58  80 SW7       30.02F
MOLINE         CLEAR     59  57  93 CALM      30.05S
ROCKFORD       CLEAR     57  53  86 S5        30.06R
STERLING       CLEAR     59  55  88 W3        30.05S
PEORIA         CLEAR     62  57  83 CALM      30.06S
$$

NOTE: "FAIR" INDICATES FEW OR NO CLOUDS BELOW 12,000 FEET WITH NO
SIGNIFICANT WEATHER AND/OR OBSTRUCTIONS TO VISIBILITY. WIND
SPEEDS ARE IN MILES-PER-HOUR.



USA.gov is the U.S. government's official web portal to all federal, state and local government web resources and services.